TimeEST,TemperatureF,Dew PointF,Humidity,Sea Level PressureIn,VisibilityMPH,Wind Direction,Wind SpeedMPH,Gust SpeedMPH,PrecipitationIn,Events,Conditions,WindDirDegrees,DateUTC
12:56 AM,32.0,28.0,85,30.18,9.0,Calm,Calm,-,N/A,,Clear,0,2012-11-05 05:56:00
1:56 AM,27.0,24.1,89,30.18,8.0,Calm,Calm,-,N/A,,Clear,0,2012-11-05 06:56:00
2:56 AM,27.0,25.0,92,30.19,6.0,NW,4.6,-,N/A,,Clear,320,2012-11-05 07:56:00
3:56 AM,27.0,24.1,89,30.19,8.0,Calm,Calm,-,N/A,,Clear,0,2012-11-05 08:56:00
4:56 AM,28.0,25.0,88,30.20,8.0,Calm,Calm,-,N/A,,Clear,0,2012-11-05 09:56:00
5:56 AM,26.6,23.0,86,30.17,6.0,Calm,Calm,-,N/A,,Clear,0,2012-11-05 10:56:00
6:56 AM,26.1,24.1,92,30.20,5.0,North,3.5,-,N/A,,Clear,350,2012-11-05 11:56:00
7:56 AM,27.0,26.1,96,30.22,3.0,Calm,Calm,-,N/A,,Clear,0,2012-11-05 12:56:00
8:56 AM,32.0,28.9,88,30.22,3.0,NE,3.5,-,N/A,,Clear,50,2012-11-05 13:56:00
9:56 AM,37.0,28.9,73,30.22,6.0,Calm,Calm,-,N/A,,Clear,0,2012-11-05 14:56:00
10:56 AM,37.9,27.0,65,30.22,10.0,Calm,Calm,-,N/A,,Clear,0,2012-11-05 15:56:00
11:56 AM,41.0,28.0,60,30.20,10.0,East,4.6,-,N/A,,Clear,100,2012-11-05 16:56:00
12:56 PM,43.0,27.0,53,30.18,10.0,Calm,Calm,-,N/A,,Clear,0,2012-11-05 17:56:00
1:56 PM,45.0,28.0,52,30.16,10.0,Calm,Calm,-,N/A,,Clear,0,2012-11-05 18:56:00
2:56 PM,45.0,28.0,52,30.14,10.0,Variable,4.6,-,N/A,,Partly Cloudy,0,2012-11-05 19:56:00
3:56 PM,45.0,28.0,52,30.14,10.0,Calm,Calm,-,N/A,,Partly Cloudy,0,2012-11-05 20:56:00
4:56 PM,43.0,27.0,53,30.14,10.0,East,3.5,-,N/A,,Scattered Clouds,80,2012-11-05 21:56:00
5:56 PM,39.0,26.1,60,30.15,10.0,NE,4.6,-,N/A,,Partly Cloudy,50,2012-11-05 22:56:00
6:56 PM,37.9,26.1,62,30.16,10.0,ENE,4.6,-,N/A,,Clear,70,2012-11-05 23:56:00
7:56 PM,35.1,26.1,70,30.16,10.0,Calm,Calm,-,N/A,,Clear,0,2012-11-06 00:56:00
8:56 PM,33.1,26.1,75,30.17,10.0,ENE,8.1,-,N/A,,Clear,70,2012-11-06 01:56:00
9:56 PM,33.1,27.0,78,30.17,10.0,ENE,9.2,-,N/A,,Clear,70,2012-11-06 02:56:00
10:56 PM,32.0,27.0,82,30.16,10.0,ENE,6.9,-,N/A,,Clear,70,2012-11-06 03:56:00
11:56 PM,32.0,27.0,82,30.14,10.0,East,4.6,-,N/A,,Clear,80,2012-11-06 04:56:00